DW5310 Weather Reports


time (UTC)temp
C
wind
direction
speed
KPH
gust
KPH
rain 1hr
cm
rain 24hr
cm
rain mn
cm
humidity
%
barometer
mb
20260906201007 13 58 0.0 0.0 0.00 1.09 1.09 98 1015.5
20260906200506 13 58 0.0 0.0 0.00 1.09 1.09 98 1015.5
20260906200006 13 58 0.0 0.0 0.00 1.09 1.09 98 1015.5
20260906195507 13 58 0.0 0.0 0.00 1.09 1.09 98 1015.5
20260906195007 13 58 0.0 0.0 0.00 1.09 1.09 98 1015.5
20260906194006 13 58 0.0 0.0 0.00 1.09 1.09 98 1015.5
20260906193507 13 58 0.0 0.0 0.00 1.09 1.09 98 1015.5
20260906193006 13 58 0.0 0.0 0.00 1.09 1.09 98 1015.5
20260906192006 13 58 0.0 0.0 0.00 1.09 1.09 98 1015.5
20260906191507 13 58 0.0 0.0 0.00 1.09 1.09 98 1015.5
20260906191008 13 58 0.0 0.0 0.00 1.09 1.09 98 1015.5
20260906190506 13 58 0.0 0.0 0.00 1.09 1.09 98 1015.5
20260906185507 13 58 0.0 0.0 0.00 1.09 1.09 98 1015.5
20260906185006 13 58 0.0 0.0 0.00 1.09 1.09 98 1015.5
20260906184006 12 58 0.0 0.0 0.00 1.09 1.09 98 1015.5
20260906183506 12 58 0.0 0.0 0.00 1.09 1.09 98 1015.5
20260906183007 12 58 0.0 0.0 0.13 1.09 1.09 98 1015.5
20260906182506 12 58 0.0 0.0 0.13 1.09 1.09 98 1015.5
20260906182007 12 58 0.0 0.0 0.13 1.09 1.09 98 1015.5
20260906181507 12 58 0.0 0.0 0.13 1.09 1.09 98 1015.5
20260906181007 12 58 0.0 0.0 0.13 1.09 1.09 98 1015.5
20260906180007 12 58 0.0 0.0 0.13 1.09 1.09 98 1015.5
20260906175006 12 58 0.0 0.0 0.25 1.09 1.09 98 1015.5
20260906174007 12 58 0.0 0.0 0.25 1.09 1.09 98 1015.5
20260906173506 12 58 0.0 0.0 0.25 1.09 1.09 98 1015.5
20260906172507 12 58 0.0 0.0 0.15 0.97 0.97 98 1015.5
20260906172007 12 58 0.0 0.0 0.15 0.97 0.97 97 1015.5
20260906171506 12 58 0.0 0.0 0.25 0.97 0.97 97 1015.5
20260906170507 12 58 0.0 0.0 0.25 0.97 0.97 97 1015.5
20260906170006 12 58 0.0 0.0 0.38 0.97 0.97 97 1015.5
20260906165506 12 58 0.0 0.0 0.25 0.84 0.84 97 1014.5
20260906165006 12 58 0.0 0.0 0.25 0.84 0.84 97 1014.5
20260906164507 12 58 0.0 0.0 0.25 0.84 0.84 97 1014.5
20260906164007 12 58 0.0 0.0 0.36 0.84 0.84 97 1014.5
20260906163507 12 58 0.0 0.0 0.36 0.84 0.84 97 1014.5
20260906163006 12 58 0.0 0.0 0.36 0.84 0.84 96 1014.5
20260906162506 12 58 0.0 0.0 0.48 0.84 0.84 96 1014.5
20260906162006 12 58 0.0 0.0 0.48 0.84 0.84 96 1014.5
20260906161506 12 58 0.0 0.0 0.36 0.71 0.71 96 1014.5
20260906161006 12 58 0.0 0.0 0.36 0.71 0.71 96 1014.5
20260906160506 12 58 0.0 0.0 0.36 0.71 0.71 96 1014.5
20260906160006 12 58 0.0 0.0 0.23 0.58 0.58 96 1014.5
20260906155506 12 58 0.0 0.0 0.36 0.58 0.58 96 1014.5
20260906155006 12 58 0.0 0.0 0.36 0.58 0.58 95 1014.5
20260906154506 12 58 0.0 0.0 0.36 0.58 0.58 95 1014.5
20260906154006 12 58 0.0 0.0 0.23 0.48 0.48 95 1014.5
20260906153507 12 58 0.0 0.0 0.23 0.48 0.48 95 1014.5
20260906153006 12 58 0.0 0.0 0.23 0.48 0.48 95 1014.5
20260906152506 12 58 0.0 0.0 0.25 0.36 0.36 95 1014.5
20260906152006 12 58 0.0 0.0 0.25 0.36 0.36 95 1014.5
20260906151506 12 58 0.0 0.0 0.25 0.36 0.36 95 1014.5
20260906151006 12 58 0.0 0.0 0.25 0.36 0.36 95 1014.5
20260906150506 12 58 0.0 0.0 0.25 0.36 0.36 95 1014.5
20260906145508 12 58 0.0 0.0 0.13 0.25 0.25 94 1014.5
20260906145007 12 58 0.0 0.0 0.13 0.25 0.25 94 1014.5
20260906144506 12 58 0.0 0.0 0.13 0.25 0.25 94 1014.5
20260906144006 12 58 0.0 0.0 0.13 0.25 0.25 94 1014.5
20260906143505 12 58 0.0 0.0 0.13 0.25 0.25 94 1014.5
20260906143006 12 58 0.0 0.0 0.13 0.25 0.25 94 1014.5
20260906142506 12 58 0.0 0.0 0.00 0.13 0.13 94 1014.5
20260906141507 12 58 0.0 0.0 0.13 0.13 0.13 93 1014.5
20260906141006 12 58 0.0 0.0 0.13 0.13 0.13 93 1014.5
20260906140505 12 58 0.0 0.0 0.13 0.13 0.13 94 1014.5
20260906140006 12 58 0.0 0.0 0.13 0.13 0.13 93 1014.5
20260906135505 12 58 0.0 0.0 0.13 0.13 0.13 93 1014.5
20260906135006 12 58 0.0 0.0 0.13 0.13 0.13 93 1014.5
20260906134506 12 58 0.0 0.0 0.13 0.13 0.13 93 1014.5
20260906134006 12 58 0.0 0.0 0.13 0.13 0.13 92 1014.5
20260906133506 12 58 0.0 0.0 0.13 0.13 0.13 92 1014.5
20260906133006 12 58 0.0 0.0 0.13 0.13 0.13 92 1014.5
20260906132505 12 58 0.0 0.0 0.13 0.13 0.13 91 1014.5
20260906132006 12 58 0.0 0.0 0.13 0.13 0.13 91 1014.5
20260906131505 12 58 0.0 0.0 0.00 0.00 0.00 91 1014.5
20260906131005 12 58 0.0 0.0 0.00 0.00 0.00 91 1014.5
20260906130505 12 58 0.0 0.0 0.00 0.00 0.00 90 1014.5
20260906130006 13 58 0.0 0.0 0.00 0.00 0.00 90 1014.5
20260906125506 13 58 0.0 0.0 0.00 0.00 0.00 90 1014.5
20260906125006 13 58 0.0 0.0 0.00 0.00 0.00 90 1014.5
20260906124506 13 58 0.0 0.0 0.00 0.00 0.00 90 1014.5
20260906124006 13 58 0.0 0.0 0.00 0.00 0.00 90 1014.5
20260906123506 13 58 0.0 0.0 0.00 0.00 0.00 90 1014.5
20260906123006 13 58 0.0 0.0 0.00 0.00 0.00 90 1014.5
20260906122506 13 58 0.0 0.0 0.00 0.00 0.00 89 1014.5
20260906120506 13 58 0.0 0.0 0.00 0.00 0.00 87 1014.5
20260906120006 13 58 0.0 0.0 0.00 0.00 0.00 86 1014.5
20260906115505 13 58 0.0 0.0 0.00 0.00 0.00 86 1014.5
20260906114505 13 58 0.0 0.0 0.00 0.00 0.00 86 1014.5
20260906114006 13 58 0.0 0.0 0.00 0.00 0.00 86 1014.5
20260906113005 13 58 0.0 0.0 0.00 0.00 0.00 85 1014.5
20260906112005 13 58 0.0 0.0 0.00 0.00 0.00 85 1014.5
20260906111506 13 58 0.0 0.0 0.00 0.00 0.00 86 1014.5
20260906105506 13 58 0.0 0.0 0.00 0.00 0.00 87 1014.5
20260906105005 13 58 0.0 0.0 0.00 0.00 0.00 87 1014.5
20260906104505 13 58 0.0 0.0 0.00 0.00 0.00 87 1014.5
20260906104006 13 58 0.0 0.0 0.00 0.00 0.00 87 1014.5
20260906103505 14 58 0.0 0.0 0.00 0.00 0.00 87 1014.5
20260906103006 14 58 0.0 0.0 0.00 0.00 0.00 87 1014.5
20260906102506 14 58 0.0 0.0 0.00 0.00 0.00 87 1014.5
20260906102005 14 58 0.0 0.0 0.00 0.00 0.00 87 1014.5
20260906101505 14 58 0.0 0.0 0.00 0.00 0.00 88 1014.5
20260906101005 14 58 0.0 0.0 0.00 0.00 0.00 88 1014.5
20260906100505 13 58 0.0 0.0 0.00 0.00 0.00 88 1014.5
20260906100005 14 58 0.0 0.0 0.00 0.00 0.00 87 1014.5
20260906095506 14 58 0.0 0.0 0.00 0.00 0.00 87 1014.5
20260906095006 14 58 0.0 0.0 0.00 0.00 0.00 87 1014.5
20260906094506 14 58 0.0 0.0 0.00 0.00 0.00 87 1014.5
20260906094006 14 58 0.0 0.0 0.00 0.00 0.00 87 1014.5
20260906093505 14 58 0.0 0.0 0.00 0.00 0.00 87 1014.5
20260906093006 14 58 0.0 0.0 0.00 0.00 0.00 86 1014.5
20260906092005 14 58 0.0 0.0 0.00 0.00 0.00 86 1014.5
20260906091505 14 58 0.0 0.0 0.00 0.00 0.00 86 1014.5
20260906091006 14 58 0.0 0.0 0.00 0.00 0.00 86 1014.5
20260906090506 14 58 0.0 0.0 0.00 0.00 0.00 85 1014.5
20260906090005 13 58 0.0 0.0 0.00 0.00 0.00 85 1014.5
20260906085005 13 58 0.0 0.0 0.00 0.00 0.00 85 1014.5
20260906084505 13 58 0.0 0.0 0.00 0.00 0.00 85 1014.5
20260906084005 13 58 0.0 0.0 0.00 0.00 0.00 85 1014.5
20260906083505 13 58 0.0 0.0 0.00 0.00 0.00 85 1014.5
20260906083007 13 58 0.0 0.0 0.00 0.00 0.00 84 1014.5
20260906082006 14 58 0.0 0.0 0.00 0.00 0.00 84 1014.5
20260906081505 14 58 0.0 0.0 0.00 0.00 0.00 83 1014.5
20260906081005 14 58 0.0 0.0 0.00 0.00 0.00 83 1014.5
20260906080005 14 58 0.0 0.0 0.00 0.00 0.00 83 1014.5
20260906075505 14 58 0.0 0.0 0.00 0.00 0.00 83 1014.5
20260906075005 14 58 0.0 0.0 0.00 0.00 0.00 82 1014.5
20260906074505 14 58 0.0 0.0 0.00 0.00 0.00 82 1014.5
20260906074005 14 58 0.0 0.0 0.00 0.00 0.00 82 1014.5
20260906073505 15 58 0.0 0.0 0.00 0.00 0.00 82 1014.5
20260906073005 15 58 0.0 0.0 0.00 0.00 0.00 81 1014.5
20260906072505 15 58 0.0 0.0 0.00 0.00 0.00 81 1014.5
20260906072005 15 58 0.0 0.0 0.00 0.00 0.00 81 1014.5
20260906071505 15 58 0.0 0.0 0.00 0.00 0.00 80 1014.5
20260906071005 15 58 0.0 0.0 0.00 0.00 0.00 80 1014.5
20260906070506 15 58 0.0 0.0 0.00 0.00 0.00 79 1014.5
20260906070005 15 58 0.0 0.0 0.00 0.00 0.00 79 1014.5
20260906065505 15 58 0.0 0.0 0.00 0.00 0.00 79 1014.5
20260906065006 15 58 0.0 0.0 0.00 0.00 0.00 78 1014.5
20260906064505 15 58 0.0 0.0 0.00 0.00 0.00 78 1014.5
20260906064005 15 58 0.0 0.0 0.00 0.00 0.00 78 1014.5
20260906063505 15 58 0.0 0.0 0.00 0.00 0.00 77 1014.5
20260906063004 15 58 0.0 0.0 0.00 0.00 0.00 77 1014.5
20260906062505 15 58 0.0 0.0 0.00 0.00 0.00 76 1015.5
20260906062005 15 58 0.0 0.0 0.00 0.00 0.00 76 1015.5
20260906061505 15 58 0.0 0.0 0.00 0.00 0.00 76 1015.5
20260906061004 15 58 0.0 0.0 0.00 0.00 0.00 75 1014.5
20260906060505 15 58 0.0 0.0 0.00 0.00 0.00 75 1014.5
20260906060005 15 58 0.0 0.0 0.00 0.00 0.00 74 1014.5
20260906055505 15 58 0.0 0.0 0.00 0.00 0.00 74 1014.5
20260906055005 15 58 0.0 0.0 0.00 0.00 0.00 74 1014.5
20260906054505 15 58 0.0 0.0 0.00 0.00 0.00 74 1014.5
20260906054005 15 58 0.0 0.0 0.00 0.00 0.00 73 1014.5
20260906053505 15 58 0.0 0.0 0.00 0.00 0.00 72 1014.5
20260906053004 15 58 0.0 0.0 0.00 0.00 0.00 72 1014.5
20260906052505 15 58 0.0 0.0 0.00 0.00 0.00 72 1014.5
20260906052005 15 58 0.0 0.0 0.00 0.00 0.00 72 1014.5
20260906051005 16 58 0.0 0.0 0.00 0.00 0.00 71 1014.5
20260906050504 16 58 0.0 0.0 0.00 0.00 0.00 70 1014.5
20260906050005 16 58 0.0 0.0 0.00 0.00 0.00 70 1014.5
20260906045005 16 58 0.0 0.0 0.00 0.00 0.00 69 1014.5
20260906044505 16 58 0.0 0.0 0.00 0.00 0.00 69 1014.5
20260906044005 16 58 0.0 0.0 0.00 0.00 0.00 68 1014.5
20260906043505 16 58 0.0 0.0 0.00 0.00 0.00 68 1014.5
20260906043005 16 58 0.0 0.0 0.00 0.00 0.00 68 1014.5
20260906042504 16 58 0.0 0.0 0.00 0.00 0.00 68 1014.5
20260906042004 16 58 0.0 0.0 0.00 0.00 0.00 67 1014.5
20260906041505 16 58 0.0 0.0 0.00 0.00 0.00 67 1014.5
20260906041005 16 58 0.0 0.0 0.00 0.00 0.00 67 1014.5
20260906040505 16 58 0.0 0.0 0.00 0.00 0.00 67 1014.5
20260906040004 16 58 0.0 0.0 0.00 0.00 0.00 67 1014.5
20260906035505 16 58 0.0 0.0 0.00 0.00 0.00 66 1013.5
20260906034505 16 58 0.0 0.0 0.00 0.00 0.00 66 1013.5
20260906034007 16 58 0.0 0.0 0.00 0.00 0.00 66 1015.5
20260906033505 16 58 0.0 0.0 0.00 0.00 0.00 66 1015.5
20260906033005 16 58 0.0 0.0 0.00 0.00 0.00 66 1015.5
20260906032505 17 58 0.0 0.0 0.00 0.00 0.00 65 1014.5
20260906032005 17 58 0.0 0.0 0.00 0.00 0.00 65 1014.5
20260906031505 17 58 0.0 0.0 0.00 0.00 0.00 65 1014.5
20260906031004 17 58 0.0 0.0 0.00 0.00 0.00 64 1014.5
20260906030505 17 58 0.0 0.0 0.00 0.00 0.00 64 1014.5
20260906030005 17 58 0.0 0.0 0.00 0.00 0.00 64 1014.5
20260906025504 17 58 0.0 0.0 0.00 0.00 0.00 64 1014.5
20260906024504 17 58 0.0 0.0 0.00 0.00 0.00 64 1014.5
20260906024005 17 58 0.0 0.0 0.00 0.00 0.00 63 1014.5
20260906023504 17 58 0.0 0.0 0.00 0.00 0.00 63 1014.5
20260906023005 17 58 0.0 0.0 0.00 0.00 0.00 63 1014.5
20260906022504 17 58 0.0 0.0 0.00 0.00 0.00 62 1014.5
20260906022006 18 58 0.0 0.0 0.00 0.00 0.00 62 1014.5
20260906021505 18 58 0.0 0.0 0.00 0.00 0.00 61 1014.5
20260906021005 18 58 0.0 0.0 0.00 0.00 0.00 61 1014.5
20260906020005 18 58 0.0 0.0 0.00 0.00 0.00 60 1014.5
20260906015504 18 58 0.0 0.0 0.00 0.00 0.00 60 1014.5
20260906015004 18 58 0.0 0.0 0.00 0.00 0.00 60 1014.5
20260906014505 18 58 0.0 0.0 0.00 0.00 0.00 59 1014.5
20260906014005 19 58 0.0 0.0 0.00 0.00 0.00 59 1014.5
20260906013504 19 58 0.0 0.0 0.00 0.00 0.00 59 1014.5
20260906013004 19 35 8.0 0.0 0.00 0.00 0.00 59 1014.5
20260906012504 20 35 8.0 0.0 0.00 0.00 0.00 58 1014.5
20260906012004 20 35 8.0 0.0 0.00 0.00 0.00 58 1014.5
20260906011504 20 35 8.0 0.0 0.00 0.00 0.00 57 1014.5
20260906011005 20 35 8.0 4.8 0.00 0.00 0.00 57 1014.5
20260906010504 20 35 8.0 4.8 0.00 0.00 0.00 57 1014.5
20260906010005 20 58 0.0 4.8 0.00 0.00 0.00 57 1014.5
20260906005504 20 58 0.0 8.0 0.00 0.00 0.00 56 1014.5
20260906005004 20 58 0.0 8.0 0.00 0.00 0.00 57 1014.5
20260906004505 20 25 0.0 8.0 0.00 0.00 0.00 57 1014.5
20260906004005 21 80 3.2 8.0 0.00 0.00 0.00 57 1014.5
20260906003504 21 125 0.0 4.8 0.00 0.00 0.00 57 1014.5
20260906003004 21 310 4.8 4.8 0.00 0.00 0.00 58 1014.5
20260906002004 21 35 0.0 4.8 0.00 0.00 0.00 55 1014.5
20260906001504 21 38 1.6 4.8 0.00 0.00 0.00 54 1014.5
20260906001004 21 58 0.0 9.7 0.00 0.00 0.00 54 1015.5
20260906000504 21 170 0.0 9.7 0.00 0.00 0.00 53 1015.5
20260906000004 21 73 3.2 9.7 0.00 0.00 0.00 57 1015.5
20260905235505 22 176 0.0 0.0 0.00 0.00 0.00 56 1015.5
20260905235004 21 58 0.0 9.7 0.00 0.00 0.00 57 1015.5
20260905234504 21 58 0.0 9.7 0.00 0.00 0.00 56 1015.5
20260905234004 22 50 1.6 9.7 0.00 0.00 0.00 56 1013.5
20260905233504 21 305 3.2 11.3 0.00 0.00 0.00 58 1013.5
20260905233005 21 315 1.6 12.9 0.00 0.00 0.00 58 1013.5
20260905232504 21 260 4.8 12.9 0.00 0.00 0.00 57 1014.5
20260905231505 21 315 0.0 0.0 0.00 0.00 0.00 61 1014.5
20260905231004 21 275 0.0 0.0 0.00 0.00 0.00 60 1014.5
20260905230504 21 224 0.0 8.0 0.00 0.00 0.00 61 1014.5
20260905230004 21 35 0.0 9.7 0.00 0.00 0.00 62 1014.5
20260905225004 20 267 4.8 11.3 0.00 0.00 0.00 61 1014.5
20260905224504 20 170 0.0 9.7 0.00 0.00 0.00 61 1014.5
20260905224004 20 80 0.0 11.3 0.00 0.00 0.00 63 1014.5
20260905223504 20 236 8.0 11.3 0.00 0.00 0.00 66 1014.5
20260905223004 20 342 1.6 8.0 0.00 0.15 0.00 64 1014.5
20260905222504 20 269 1.6 8.0 0.00 0.15 0.00 65 1014.5
20260905221504 20 170 1.6 8.0 0.00 0.15 0.00 63 1014.5
20260905221004 20 215 0.0 9.7 0.00 0.15 0.00 63 1015.5
20260905220505 20 238 1.6 11.3 0.00 0.15 0.00 64 1015.5
20260905220004 20 260 0.0 11.3 0.00 0.15 0.00 64 1015.5
20260905215503 20 156 1.6 11.3 0.00 0.15 0.00 65 1014.5
20260905215004 19 262 1.6 4.8 0.00 0.15 0.00 64 1014.5
20260905214504 20 282 0.0 0.0 0.00 0.15 0.00 65 1014.5
20260905214004 20 282 0.0 0.0 0.00 0.25 0.00 66 1014.5
20260905213503 20 282 0.0 3.2 0.00 0.25 0.00 67 1014.5
20260905213004 20 353 0.0 4.8 0.00 0.61 0.00 67 1014.5
20260905212504 19 40 1.6 4.8 0.00 0.76 0.00 68 1014.5
20260905212003 19 260 0.0 11.3 0.00 0.86 0.00 67 1014.5
20260905211003 20 273 9.7 12.9 0.00 0.86 0.00 67 1015.5
20260905210503 20 265 0.0 12.9 0.00 0.86 0.00 67 1015.5
20260905210004 20 132 8.0 12.9 0.00 0.86 0.00 64 1015.5
20260905205503 20 215 1.6 11.3 0.00 0.86 0.00 68 1014.5
20260905205004 19 193 0.0 0.0 0.00 0.86 0.00 70 1014.5
20260905204504 18 35 0.0 4.8 0.00 0.86 0.00 70 1014.5
20260905203504 19 230 3.2 11.3 0.00 0.86 0.00 69 1015.5
20260905203004 19 53 1.6 8.0 0.00 0.86 0.00 72 1015.5
20260905202504 19 35 1.6 9.7 0.00 0.86 0.00 72 1014.5
20260905202004 19 43 3.2 9.7 0.00 0.86 0.00 72 1014.5